Location: Unspecified
(0.0000°N, 0.0000°E)
Time: 03:31:45
(UTC+00:00)

ISS - Pass Details

Date: 15 January 2018
Orbit: 402 x 407 km, 51.6° (Epoch: 24 January)

Event Time Altitude Azimuth Distance (km) Brightness Sun altitude
Rises 19:14:00 0° 185° (S) 2,309 0.4 -15.0°
Reaches altitude 10° 19:16:58 10° 156° (SSE) 1,448 -1.1 -15.7°
Enters shadow 19:18:06 13° 135° (SE) 1,295 -1.5 -16.0°
